Weather History for KCIR - May, 2014

Change the Weather History Date:

Sunday, May 11, 2014

  Actual Average Record
Temperature  
Mean Temperature 78 °F -  
Max Temperature 88 °F 77 °F 91 °F (1962)
Min Temperature 70 °F 57 °F 40 °F (1989)
Cooling Degree Days 14    
Growing Degree Days 28 (Base 50)    
Moisture  
Dew Point 67 °F    
Average Humidity 68    
Maximum Humidity 80    
Minimum Humidity 52    
Precipitation  
Precipitation 0.00 in - - ()
Sea Level Pressure  
Sea Level Pressure 29.96 in    
Wind  
Wind Speed 7 mph (SSE)    
Max Wind Speed 15 mph    
Max Gust Speed 24 mph    
Visibility 10 miles    
Events Thunderstorm    
Averages and records for this station are not official NWS values.
T = Trace of Precipitation, MM = Missing Value Source: NWS Daily Summary

Daily Weather History Graph

Daily Weather History Graph

Search for Another Location

Airport or City:

Trip Planner

Search our weather history database for the weather conditions in past years. The results will help you decide how hot, cold, wet, or windy it might be!

Date:

Astronomy

May. 11, 2014 Rise Set
Actual Time 5:52 AM CDT 7:54 PM CDT
Civil Twilight 5:23 AM CDT 8:23 PM CDT
Nautical Twilight 4:48 AM CDT 8:58 PM CDT
Astronomical Twilight 4:10 AM CDT 9:36 PM CDT
Moon 4:54 PM CDT (5/11) 3:52 AM CDT (5/11)
Length of Visible Light 15h 00m
Length of Day
14h 02m
Waxing Gibbous, 89% of the Moon is Illuminated
May 11
Waxing Gibbous
May 14
Full
May 21
Last Quarter
May 28
New
Jun 5
First Quarter

Hourly Weather History & Observations

Time (CDT) Temp. Heat Index Dew Point Humidity Pressure Visibility Wind Dir Wind Speed Gust Speed Precip Events Conditions
12:15 AM 72.9 °F - 64.8 °F 76% 29.95 in 10.0 mi SSE 4.6 mph - N/A   Clear
12:35 AM 72.0 °F - 64.2 °F 77% 29.95 in 10.0 mi SSE 4.6 mph - N/A   Clear
12:55 AM 71.6 °F - 63.5 °F 76% 29.95 in 10.0 mi SE 5.8 mph - N/A   Clear
1:15 AM 71.6 °F - 63.7 °F 76% 29.96 in 10.0 mi SSE 3.5 mph - N/A   Clear
1:35 AM 71.2 °F - 63.5 °F 76% 29.96 in 10.0 mi SSE 4.6 mph - N/A   Clear
1:55 AM 71.6 °F - 63.5 °F 76% 29.95 in 10.0 mi SSE 4.6 mph - N/A   Scattered Clouds
2:15 AM 71.8 °F - 63.5 °F 75% 29.95 in 10.0 mi SSE 6.9 mph - N/A   Clear
2:35 AM 71.1 °F - 63.5 °F 77% 29.95 in 10.0 mi SSE 5.8 mph - N/A   Clear
2:55 AM 71.4 °F - 63.5 °F 76% 29.95 in 10.0 mi SSE 5.8 mph - N/A   Clear
3:15 AM 71.1 °F - 63.1 °F 76% 29.95 in 10.0 mi SSE 4.6 mph - N/A   Clear
3:35 AM 70.0 °F - 63.0 °F 78% 29.95 in 10.0 mi SSE 4.6 mph - N/A   Clear
3:55 AM 70.7 °F - 63.5 °F 78% 29.96 in 10.0 mi SSE 5.8 mph - N/A   Clear
4:15 AM 71.2 °F - 63.9 °F 77% 29.96 in 10.0 mi South 5.8 mph - N/A   Clear
4:35 AM 71.6 °F - 63.9 °F 76% 29.96 in 10.0 mi South 6.9 mph - N/A   Clear
4:55 AM 71.6 °F - 64.2 °F 77% 29.97 in 10.0 mi South 6.9 mph - N/A   Clear
5:15 AM 71.8 °F - 64.4 °F 77% 29.97 in 10.0 mi SSE 5.8 mph - N/A   Clear
5:35 AM 71.4 °F - 64.4 °F 78% 29.97 in 10.0 mi South 5.8 mph - N/A   Clear
5:55 AM 71.2 °F - 64.6 °F 79% 29.98 in 10.0 mi South 5.8 mph - N/A   Scattered Clouds
6:15 AM 71.6 °F - 64.8 °F 79% 29.99 in 10.0 mi SSE 5.8 mph - N/A   Mostly Cloudy
6:35 AM 71.6 °F - 65.3 °F 80% 30.00 in 10.0 mi SE 4.6 mph - N/A   Mostly Cloudy
6:55 AM 72.1 °F - 65.7 °F 80% 30.00 in 10.0 mi SSE 5.8 mph - N/A   Scattered Clouds
7:15 AM 72.7 °F - 65.7 °F 79% 30.00 in 10.0 mi SSE 6.9 mph - N/A   Clear
7:35 AM 73.2 °F - 66.0 °F 78% 30.00 in 10.0 mi SSE 6.9 mph - N/A   Scattered Clouds
7:55 AM 74.1 °F - 66.4 °F 77% 30.00 in 10.0 mi SSE 6.9 mph - N/A   Scattered Clouds
8:15 AM 74.8 °F - 66.9 °F 76% 30.00 in 10.0 mi SSE 5.8 mph - N/A   Scattered Clouds
8:35 AM 75.6 °F - 67.3 °F 75% 30.00 in 10.0 mi SSE 6.9 mph - N/A   Scattered Clouds
8:55 AM 76.5 °F - 67.6 °F 74% 30.01 in 10.0 mi South 4.6 mph - N/A   Scattered Clouds
9:15 AM 78.1 °F - 68.2 °F 71% 30.01 in 10.0 mi South 5.8 mph - N/A   Scattered Clouds
9:35 AM 79.5 °F - 68.9 °F 70% 30.01 in 10.0 mi SE 6.9 mph - N/A   Clear
9:55 AM 80.2 °F 83.1 °F 68.9 °F 68% 30.01 in 10.0 mi South 8.1 mph - N/A   Scattered Clouds
10:15 AM 80.6 °F 83.8 °F 69.6 °F 69% 30.01 in 10.0 mi South 5.8 mph - N/A   Mostly Cloudy
10:35 AM 81.5 °F 84.8 °F 69.1 °F 66% 30.01 in 10.0 mi South 5.8 mph - N/A   Mostly Cloudy
10:55 AM 81.7 °F 85.2 °F 69.8 °F 67% 30.01 in 10.0 mi SSE 6.9 mph - N/A   Mostly Cloudy
11:15 AM 81.1 °F 84.5 °F 69.6 °F 68% 30.01 in 10.0 mi South 6.9 mph - N/A   Mostly Cloudy
11:35 AM 81.1 °F 84.4 °F 69.3 °F 67% 30.01 in 10.0 mi South 3.5 mph - N/A   Mostly Cloudy
11:55 AM 83.1 °F 86.6 °F 69.1 °F 62% 30.00 in 10.0 mi SSE 8.1 mph - N/A   Mostly Cloudy
12:15 PM 82.9 °F 86.7 °F 69.8 °F 64% 30.00 in 10.0 mi SSE 10.4 mph - N/A   Mostly Cloudy
12:35 PM 82.0 °F 85.5 °F 69.1 °F 65% 29.99 in 10.0 mi South 3.5 mph - N/A   Overcast
12:55 PM 81.1 °F 84.7 °F 70.0 °F 69% 29.98 in 10.0 mi South 6.9 mph - N/A   Overcast
1:15 PM 83.3 °F 88.4 °F 71.6 °F 68% 29.97 in 10.0 mi South 8.1 mph - N/A Thunderstorm Mostly Cloudy
1:35 PM 84.4 °F 89.0 °F 70.7 °F 63% 29.96 in 10.0 mi South 9.2 mph 16.1 mph N/A   Mostly Cloudy
1:55 PM 83.3 °F 86.9 °F 69.3 °F 62% 29.96 in 10.0 mi South 5.8 mph 9.2 mph N/A   Mostly Cloudy
2:15 PM 86.4 °F 90.7 °F 69.4 °F 57% 29.95 in 10.0 mi SSW 11.5 mph 17.3 mph N/A   Mostly Cloudy
2:35 PM 86.9 °F 91.0 °F 68.7 °F 55% 29.94 in 10.0 mi SSW 12.7 mph 17.3 mph N/A Thunderstorm Scattered Clouds
2:55 PM 85.1 °F 88.2 °F 67.8 °F 56% 29.94 in 10.0 mi SSW 13.8 mph 18.4 mph N/A   Mostly Cloudy
3:15 PM 87.3 °F 90.5 °F 67.8 °F 52% 29.93 in 10.0 mi South 10.4 mph 18.4 mph N/A   Mostly Cloudy
3:35 PM 86.7 °F 89.9 °F 67.6 °F 53% 29.93 in 10.0 mi SSW 11.5 mph 18.4 mph N/A   Mostly Cloudy
3:55 PM 86.9 °F 90.6 °F 68.4 °F 54% 29.92 in 10.0 mi South 15.0 mph 19.6 mph N/A   Mostly Cloudy
4:15 PM 87.6 °F 91.5 °F 68.5 °F 53% 29.91 in 10.0 mi SSW 11.5 mph 18.4 mph N/A   Scattered Clouds
4:35 PM 87.4 °F 90.8 °F 68.0 °F 52% 29.91 in 10.0 mi SSW 9.2 mph 20.7 mph N/A   Clear
4:55 PM 86.5 °F 89.6 °F 67.8 °F 53% 29.91 in 10.0 mi SSW 9.2 mph - N/A   Scattered Clouds
5:15 PM 87.1 °F 90.6 °F 68.0 °F 53% 29.91 in 10.0 mi SSW 12.7 mph 24.2 mph N/A   Scattered Clouds
5:35 PM 86.0 °F 88.8 °F 66.9 °F 53% 29.91 in 10.0 mi South 11.5 mph 17.3 mph N/A   Clear
5:55 PM 86.2 °F 88.8 °F 66.6 °F 52% 29.91 in 10.0 mi SSW 11.5 mph 17.3 mph N/A   Scattered Clouds
6:15 PM 85.6 °F 88.5 °F 67.3 °F 54% 29.91 in 10.0 mi South 5.8 mph - N/A   Scattered Clouds
6:35 PM 85.3 °F 88.2 °F 67.5 °F 55% 29.90 in 10.0 mi South 9.2 mph - N/A   Scattered Clouds
6:55 PM 84.2 °F 87.3 °F 67.8 °F 58% 29.90 in 10.0 mi SSE 10.4 mph - N/A   Scattered Clouds
7:15 PM 83.5 °F 86.4 °F 68.0 °F 59% 29.90 in 10.0 mi SSE 8.1 mph - N/A   Scattered Clouds
7:35 PM 82.4 °F 85.4 °F 68.0 °F 62% 29.91 in 10.0 mi SSE 9.2 mph - N/A   Scattered Clouds
7:55 PM 81.9 °F 84.6 °F 67.5 °F 62% 29.91 in 10.0 mi SSE 11.5 mph 17.3 mph N/A   Scattered Clouds
8:15 PM 81.7 °F 84.3 °F 67.6 °F 62% 29.91 in 10.0 mi SSE 10.4 mph - N/A   Clear
8:35 PM 80.2 °F 82.8 °F 68.0 °F 66% 29.92 in 10.0 mi SSE 8.1 mph - N/A   Clear
8:55 PM 80.1 °F 82.4 °F 67.5 °F 65% 29.92 in 10.0 mi SSE 9.2 mph - N/A   Clear
9:15 PM 79.3 °F - 67.3 °F 66% 29.92 in 10.0 mi SSE 6.9 mph - N/A   Clear
9:35 PM 79.0 °F - 67.5 °F 68% 29.93 in 10.0 mi SSE 6.9 mph - N/A   Clear
9:55 PM 78.8 °F - 67.3 °F 68% 29.93 in 10.0 mi SSE 6.9 mph - N/A   Clear
10:15 PM 77.9 °F - 67.5 °F 70% 29.94 in 10.0 mi SSE 8.1 mph - N/A   Clear
10:35 PM 78.1 °F - 67.6 °F 70% 29.94 in 10.0 mi SSE 8.1 mph - N/A   Clear
10:55 PM 77.9 °F - 67.5 °F 70% 29.94 in 10.0 mi SSE 8.1 mph - N/A   Clear
11:15 PM 77.9 °F - 67.3 °F 70% 29.95 in 10.0 mi SSE 8.1 mph - N/A   Clear
11:35 PM 77.9 °F - 67.1 °F 69% 29.94 in 10.0 mi SSE 9.2 mph - N/A   Clear
11:55 PM 77.9 °F - 66.9 °F 69% 29.94 in 10.0 mi SSE 9.2 mph - N/A   Clear